774  
ASUS41 KRLX 160510  
RWRRLX  
WEST VIRGINIA REGIONAL WEATHER ROUNDUP  
NATIONAL WEATHER SERVICE CHARLESTON WV  
1200 AM EST SAT DEC 16 2017  
 
NOTE: "FAIR" INDICATES FEW OR NO CLOUDS BELOW 12,000 FEET WITH NO  
SIGNIFICANT WEATHER AND/OR S TO VISIBILITY
.  
 
WVZ003-160600-  
NORTHERN PANHANDLE OF WEST VIRGINIA  
 
CITY SKY/WX TMP DP RH WIND PRES REMARKS
 
WHEELING CLOUDY 28 16 60 W12 30.02S  

 
 
WVZ009-160600-  
NORTHWEST WEST VIRGINIA  
 
CITY SKY/WX TMP DP RH WIND PRES REMARKS
 
PARKERSBURG CLOUDY 31 19 61 W7 30.14R  

 
 
WVZ006-160600-  
WESTERN WEST VIRGINIA  
 
CITY SKY/WX TMP DP RH WIND PRES REMARKS
 
HUNTINGTON CLOUDY 32 20 61 SW7 30.14R  

 
 
WVZ015-160600-  
WEST CENTRAL WEST VIRGINIA  
 
CITY SKY/WX TMP DP RH WIND PRES REMARKS
 
CHARLESTON CLOUDY 33 19 56 SW8 30.13R  

 
 
WVZ022-031-160600-  
NORTH CENTRAL WEST VIRGINIA  
 
CITY SKY/WX TMP DP RH WIND PRES REMARKS
 
CLARKSBURG CLOUDY 31 19 61 W9 30.07R  
MORGANTOWN CLOUDY 30 16 56 W8G17 30.05R  

 
 
WVZ025-035-042-045-160600-  
SOUTHERN WEST VIRGINIA  
 
CITY SKY/WX TMP DP RH WIND PRES REMARKS
 
BECKLEY CLOUDY 26 17 68 W12G18 30.06R  
LOGAN CLOUDY 30 19 64 W6G15 30.12R  
BLUEFIELD CLOUDY 24 16 71 W14G26 30.05R  
LEWISBURG CLOUDY 28 18 65 W8 30.05R  

 
 
WVZ047-160600-  
NORTHERN MOUNTAINS OF WEST VIRGINIA  
 
CITY SKY/WX TMP DP RH WIND PRES REMARKS
 
ELKINS CLOUDY 27 16 63 W9G23 30.03S  

 
 
WVZ052-160600-  
EASTERN PANHANDLE OF WEST VIRGINIA  
 
CITY SKY/WX TMP DP RH WIND PRES REMARKS
 
MARTINSBURG CLOUDY 34 16 47 W15 29.99R  
PETERSBURG CLOUDY 32 16 52 SW15G23 30.02R  

 
 
 
CLICK HERE TO GO TO PREVIOUS BULLETINS.

The Nexlab WV Page
The Nexlab OH Page
The Nexlab KY Page
The Nexlab VA Page Main Text Page